Location: Kumla
(59.1265°N, 15.1401°E)
Time: 04:26:53
(UTC+01:00)

Vanguard 2 Rocket - Pass Details

Date: 07 December 2023
Orbit: 554 x 3309 km, 32.9° (Epoch: 27 February)

Event Time Altitude Azimuth Distance (km) Brightness Sun altitude
Rises 18:55:19 0° 263° (W) 7,197 12.7 -27.5°
Reaches altitude 10° 19:02:15 10° 249° (WSW) 6,267 11.9 -28.4°
Maximum altitude 19:13:53 19° 213° (SSW) 5,295 11.0 -29.9°
Drops below altitude 10° 19:24:19 10° 176° (S) 5,518 10.7 -31.2°
Sets 19:29:51 0° 161° (SSE) 6,099 10.9 -31.9°
